Time,TemperatureF,DewpointF,PressureIn,WindDirection,WindDirectionDegrees,WindSpeedMPH,WindSpeedGustMPH,Humidity,HourlyPrecipIn,Conditions,Clouds,dailyrainin,SoftwareType,DateUTC
2013-01-11 00:02:00,37.0,12.0,29.98,WNW,293,11.0,19.0,35,0.00,,,0.00,,2013-01-11 08:02:00,
2013-01-11 00:11:00,37.0,14.0,29.99,NNE,29,0.0,9.0,38,0.00,,,0.00,,2013-01-11 08:11:00,
2013-01-11 00:22:00,37.0,14.0,29.99,NNE,29,0.0,9.0,38,0.00,,,0.00,,2013-01-11 08:22:00,
2013-01-11 00:32:00,36.0,13.0,29.99,WNW,292,12.0,16.0,38,0.00,,,0.00,,2013-01-11 08:32:00,
2013-01-11 00:42:00,36.0,13.0,29.99,WNW,292,12.0,16.0,38,0.00,,,0.00,,2013-01-11 08:42:00,
2013-01-11 00:52:00,37.0,13.0,29.98,WNW,300,14.0,24.0,37,0.00,,,0.00,,2013-01-11 08:52:00,
2013-01-11 01:02:00,37.0,12.0,29.98,NW,308,9.0,15.0,35,0.00,,,0.00,,2013-01-11 09:02:00,
2013-01-11 01:11:00,37.0,12.0,29.98,NW,308,9.0,15.0,35,0.00,,,0.00,,2013-01-11 09:11:00,
2013-01-11 01:22:00,36.0,13.0,29.99,WNW,297,8.0,16.0,39,0.00,,,0.00,,2013-01-11 09:22:00,
2013-01-11 01:32:00,36.0,13.0,29.99,NW,304,7.0,15.0,38,0.00,,,0.00,,2013-01-11 09:32:00,
2013-01-11 01:42:00,36.0,13.0,29.99,NW,304,7.0,15.0,38,0.00,,,0.00,,2013-01-11 09:42:00,
2013-01-11 01:52:00,36.0,13.0,30.00,NNW,338,6.0,12.0,38,0.00,,,0.00,,2013-01-11 09:52:00,
2013-01-11 02:02:00,35.0,12.0,30.00,NW,319,0.0,5.0,38,0.00,,,0.00,,2013-01-11 10:02:00,
2013-01-11 02:11:00,35.0,12.0,30.00,NW,319,0.0,5.0,38,0.00,,,0.00,,2013-01-11 10:11:00,
2013-01-11 02:22:00,34.0,10.0,30.01,NNE,19,6.0,11.0,36,0.00,,,0.00,,2013-01-11 10:22:00,
2013-01-11 02:32:00,35.0,11.0,30.01,NNW,335,1.0,9.0,36,0.00,,,0.00,,2013-01-11 10:32:00,
2013-01-11 02:42:00,35.0,11.0,30.01,NNW,335,1.0,9.0,36,0.00,,,0.00,,2013-01-11 10:42:00,
2013-01-11 02:52:00,35.0,8.0,30.02,WNW,285,4.0,11.0,32,0.00,,,0.00,,2013-01-11 10:52:00,
2013-01-11 03:02:00,35.0,8.0,30.02,WSW,255,9.0,16.0,32,0.00,,,0.00,,2013-01-11 11:02:00,
2013-01-11 03:11:00,35.0,8.0,30.02,WSW,255,9.0,16.0,32,0.00,,,0.00,,2013-01-11 11:11:00,
2013-01-11 03:22:00,37.0,9.0,30.01,WNW,293,11.0,20.0,31,0.00,,,0.00,,2013-01-11 11:22:00,
2013-01-11 03:32:00,36.0,8.0,30.01,WSW,256,5.0,13.0,30,0.00,,,0.00,,2013-01-11 11:32:00,
2013-01-11 03:42:00,36.0,8.0,30.01,WSW,256,5.0,13.0,30,0.00,,,0.00,,2013-01-11 11:42:00,
2013-01-11 03:53:00,35.0,10.0,30.01,WSW,238,7.0,15.0,35,0.00,,,0.00,,2013-01-11 11:53:00,
2013-01-11 04:02:00,34.0,9.0,30.01,SW,229,5.0,10.0,34,0.00,,,0.00,,2013-01-11 12:02:00,
2013-01-11 04:12:00,34.0,9.0,30.01,SW,229,5.0,10.0,34,0.00,,,0.00,,2013-01-11 12:12:00,
2013-01-11 04:22:00,34.0,12.0,30.01,West,264,6.0,20.0,40,0.00,,,0.00,,2013-01-11 12:22:00,
2013-01-11 04:32:00,34.0,12.0,30.01,WNW,286,3.0,15.0,40,0.00,,,0.00,,2013-01-11 12:32:00,
2013-01-11 04:42:00,34.0,12.0,30.01,WNW,286,3.0,15.0,40,0.00,,,0.00,,2013-01-11 12:42:00,
2013-01-11 04:52:00,34.0,9.0,30.00,WNW,300,2.0,12.0,34,0.00,,,0.00,,2013-01-11 12:52:00,
2013-01-11 05:02:00,34.0,10.0,30.00,South,172,0.0,5.0,36,0.00,,,0.00,,2013-01-11 13:02:00,
2013-01-11 05:12:00,34.0,10.0,30.00,South,172,0.0,5.0,36,0.00,,,0.00,,2013-01-11 13:12:00,
2013-01-11 05:22:00,33.0,11.0,30.01,South,174,0.0,4.0,40,0.00,,,0.00,,2013-01-11 13:22:00,
2013-01-11 05:32:00,32.0,11.0,30.01,South,174,3.0,3.0,41,0.00,,,0.00,,2013-01-11 13:32:00,
2013-01-11 05:42:00,32.0,11.0,30.01,South,174,3.0,3.0,41,0.00,,,0.00,,2013-01-11 13:42:00,
2013-01-11 05:52:00,30.0,9.0,30.03,SSW,197,5.0,6.0,41,0.00,,,0.00,,2013-01-11 13:52:00,
2013-01-11 06:02:00,30.0,11.0,30.03,SSW,210,8.0,11.0,45,0.00,,,0.00,,2013-01-11 14:02:00,
2013-01-11 06:11:00,30.0,11.0,30.03,SSW,210,8.0,11.0,45,0.00,,,0.00,,2013-01-11 14:11:00,
2013-01-11 06:22:00,32.0,13.0,30.03,SSW,195,4.0,9.0,45,0.00,,,0.00,,2013-01-11 14:22:00,
2013-01-11 06:32:00,32.0,12.0,30.03,SSW,205,5.0,7.0,43,0.00,,,0.00,,2013-01-11 14:32:00,
2013-01-11 06:42:00,31.0,11.0,30.05,SSW,205,4.0,5.0,42,0.00,,,0.00,,2013-01-11 14:42:00,
2013-01-11 06:53:00,31.0,11.0,30.05,SSW,205,4.0,5.0,42,0.00,,,0.00,,2013-01-11 14:53:00,
2013-01-11 07:02:00,31.0,11.0,30.05,SW,216,3.0,6.0,42,0.00,,,0.00,,2013-01-11 15:02:00,
2013-01-11 07:12:00,30.0,10.0,30.06,SW,217,2.0,3.0,43,0.00,,,0.00,,2013-01-11 15:12:00,
2013-01-11 07:22:00,30.0,10.0,30.06,SW,217,2.0,3.0,43,0.00,,,0.00,,2013-01-11 15:22:00,
2013-01-11 07:32:00,30.0,10.0,30.06,SW,217,0.0,3.0,43,0.00,,,0.00,,2013-01-11 15:32:00,
2013-01-11 07:42:00,30.0,10.0,30.06,SW,217,0.0,3.0,43,0.00,,,0.00,,2013-01-11 15:42:00,
2013-01-11 07:53:00,30.0,12.0,30.07,SW,217,1.0,3.0,46,0.00,,,0.00,,2013-01-11 15:53:00,
2013-01-11 08:02:00,30.0,10.0,30.07,West,269,0.0,5.0,42,0.00,,,0.00,,2013-01-11 16:02:00,
2013-01-11 08:12:00,32.0,10.0,30.08,West,269,0.0,3.0,40,0.00,,,0.00,,2013-01-11 16:12:00,
2013-01-11 08:22:00,32.0,10.0,30.08,West,269,0.0,3.0,40,0.00,,,0.00,,2013-01-11 16:22:00,
2013-01-11 08:32:00,33.0,10.0,30.08,West,269,3.0,4.0,37,0.00,,,0.00,,2013-01-11 16:32:00,
2013-01-11 08:42:00,33.0,10.0,30.08,West,269,3.0,4.0,37,0.00,,,0.00,,2013-01-11 16:42:00,
2013-01-11 08:53:00,33.0,8.0,30.08,West,269,2.0,4.0,35,0.00,,,0.00,,2013-01-11 16:53:00,
2013-01-11 09:02:00,34.0,9.0,30.08,West,270,3.0,5.0,34,0.00,,,0.00,,2013-01-11 17:02:00,
2013-01-11 09:12:00,35.0,6.0,30.08,NW,305,4.0,4.0,29,0.00,,,0.00,,2013-01-11 17:12:00,
2013-01-11 09:22:00,35.0,6.0,30.08,NW,305,4.0,4.0,29,0.00,,,0.00,,2013-01-11 17:22:00,
2013-01-11 09:32:00,36.0,5.0,30.08,NW,308,3.0,6.0,27,0.00,,,0.00,,2013-01-11 17:32:00,
2013-01-11 09:42:00,36.0,5.0,30.08,NW,308,3.0,6.0,27,0.00,,,0.00,,2013-01-11 17:42:00,
2013-01-11 09:53:00,37.0,5.0,30.07,West,278,4.0,6.0,26,0.00,,,0.00,,2013-01-11 17:53:00,
2013-01-11 10:02:00,38.0,6.0,30.07,West,267,4.0,5.0,26,0.00,,,0.00,,2013-01-11 18:02:00,
2013-01-11 10:12:00,38.0,6.0,30.07,West,267,4.0,5.0,26,0.00,,,0.00,,2013-01-11 18:12:00,
2013-01-11 10:22:00,40.0,6.0,30.09,West,266,3.0,5.0,24,0.00,,,0.00,,2013-01-11 18:22:00,
2013-01-11 10:32:00,41.0,7.0,30.09,West,265,0.0,4.0,24,0.00,,,0.00,,2013-01-11 18:32:00,
2013-01-11 10:42:00,41.0,7.0,30.09,West,265,0.0,4.0,24,0.00,,,0.00,,2013-01-11 18:42:00,
2013-01-11 10:53:00,43.0,5.0,30.08,West,267,3.0,4.0,20,0.00,,,0.00,,2013-01-11 18:53:00,
2013-01-11 11:02:00,44.0,6.0,30.08,West,267,0.0,2.0,20,0.00,,,0.00,,2013-01-11 19:02:00,
2013-01-11 11:12:00,44.0,6.0,30.08,West,267,0.0,2.0,20,0.00,,,0.00,,2013-01-11 19:12:00,
2013-01-11 11:22:00,45.0,5.0,30.06,East,89,2.0,6.0,19,0.00,,,0.00,,2013-01-11 19:22:00,
2013-01-11 11:32:00,46.0,5.0,30.06,East,89,1.0,5.0,18,0.00,,,0.00,,2013-01-11 19:32:00,
2013-01-11 11:42:00,46.0,5.0,30.06,East,89,1.0,5.0,18,0.00,,,0.00,,2013-01-11 19:42:00,
2013-01-11 11:53:00,46.0,5.0,30.04,East,89,2.0,3.0,18,0.00,,,0.00,,2013-01-11 19:53:00,
2013-01-11 12:02:00,45.0,5.0,30.04,NNE,30,4.0,7.0,19,0.00,,,0.00,,2013-01-11 20:02:00,
2013-01-11 12:11:00,45.0,5.0,30.04,NNE,30,4.0,7.0,19,0.00,,,0.00,,2013-01-11 20:11:00,
2013-01-11 12:22:00,44.0,4.0,30.03,NE,35,0.0,7.0,19,0.00,,,0.00,,2013-01-11 20:22:00,
2013-01-11 12:32:00,44.0,4.0,30.03,ENE,73,2.0,5.0,19,0.00,,,0.00,,2013-01-11 20:32:00,
2013-01-11 12:42:00,44.0,4.0,30.03,ENE,73,2.0,5.0,19,0.00,,,0.00,,2013-01-11 20:42:00,
2013-01-11 12:53:00,45.0,5.0,30.01,NE,54,2.0,5.0,19,0.00,,,0.00,,2013-01-11 20:53:00,
2013-01-11 13:02:00,46.0,6.0,30.01,NW,325,4.0,7.0,19,0.00,,,0.00,,2013-01-11 21:02:00,
2013-01-11 13:12:00,46.0,6.0,30.01,NW,325,4.0,7.0,19,0.00,,,0.00,,2013-01-11 21:12:00,
2013-01-11 13:22:00,45.0,4.0,30.01,North,360,8.0,11.0,18,0.00,,,0.00,,2013-01-11 21:22:00,
2013-01-11 13:32:00,45.0,4.0,30.01,North,360,8.0,11.0,18,0.00,,,0.00,,2013-01-11 21:32:00,
2013-01-11 13:42:00,45.0,4.0,30.01,North,360,8.0,11.0,18,0.00,,,0.00,,2013-01-11 21:42:00,
2013-01-11 13:53:00,45.0,4.0,30.01,ENE,77,1.0,5.0,18,0.00,,,0.00,,2013-01-11 21:53:00,
2013-01-11 14:02:00,46.0,6.0,30.01,North,358,7.0,11.0,19,0.00,,,0.00,,2013-01-11 22:02:00,
2013-01-11 14:12:00,46.0,6.0,30.01,North,358,7.0,11.0,19,0.00,,,0.00,,2013-01-11 22:12:00,
2013-01-11 14:22:00,47.0,6.0,30.00,North,6,3.0,5.0,18,0.00,,,0.00,,2013-01-11 22:22:00,
2013-01-11 14:32:00,46.0,6.0,30.00,NW,313,7.0,10.0,19,0.00,,,0.00,,2013-01-11 22:32:00,
2013-01-11 14:42:00,46.0,6.0,30.00,NW,313,7.0,10.0,19,0.00,,,0.00,,2013-01-11 22:42:00,
2013-01-11 14:53:00,46.0,6.0,29.99,NNW,327,2.0,4.0,19,0.00,,,0.00,,2013-01-11 22:53:00,
2013-01-11 15:02:00,46.0,6.0,29.99,WSW,257,2.0,5.0,19,0.00,,,0.00,,2013-01-11 23:02:00,
2013-01-11 15:12:00,46.0,6.0,29.99,WSW,257,2.0,5.0,19,0.00,,,0.00,,2013-01-11 23:12:00,
2013-01-11 15:22:00,46.0,5.0,29.98,NE,56,4.0,6.0,18,0.00,,,0.00,,2013-01-11 23:22:00,
2013-01-11 15:32:00,46.0,6.0,29.98,NE,56,3.0,5.0,19,0.00,,,0.00,,2013-01-11 23:32:00,
2013-01-11 15:42:00,46.0,6.0,29.98,NE,56,3.0,5.0,19,0.00,,,0.00,,2013-01-11 23:42:00,
2013-01-11 15:53:00,46.0,11.0,30.00,North,360,5.0,6.0,24,0.00,,,0.00,,2013-01-11 23:53:00,
2013-01-11 16:02:00,45.0,13.0,30.00,West,271,10.0,14.0,27,0.00,,,0.00,,2013-01-12 00:02:00,
2013-01-11 16:12:00,44.0,13.0,30.00,West,276,8.0,14.0,28,0.00,,,0.00,,2013-01-12 00:12:00,
2013-01-11 16:22:00,44.0,13.0,30.00,West,276,8.0,14.0,28,0.00,,,0.00,,2013-01-12 00:22:00,
2013-01-11 16:32:00,43.0,13.0,30.00,WNW,293,9.0,13.0,29,0.00,,,0.00,,2013-01-12 00:32:00,
2013-01-11 16:42:00,43.0,13.0,30.00,WNW,293,9.0,13.0,29,0.00,,,0.00,,2013-01-12 00:42:00,
2013-01-11 16:52:00,41.0,11.0,29.98,West,275,6.0,10.0,29,0.00,,,0.00,,2013-01-12 00:52:00,
2013-01-11 17:02:00,41.0,11.0,29.98,West,271,6.0,11.0,29,0.00,,,0.00,,2013-01-12 01:02:00,
2013-01-11 17:12:00,41.0,11.0,29.98,West,271,6.0,11.0,29,0.00,,,0.00,,2013-01-12 01:12:00,
2013-01-11 17:22:00,40.0,12.0,29.99,West,260,4.0,9.0,31,0.00,,,0.00,,2013-01-12 01:22:00,
2013-01-11 17:32:00,39.0,11.0,29.99,WSW,256,4.0,9.0,31,0.00,,,0.00,,2013-01-12 01:32:00,
2013-01-11 17:42:00,39.0,11.0,29.99,WSW,256,4.0,9.0,31,0.00,,,0.00,,2013-01-12 01:42:00,
2013-01-11 17:52:00,38.0,11.0,30.00,WSW,256,5.0,10.0,33,0.00,,,0.00,,2013-01-12 01:52:00,
2013-01-11 18:02:00,38.0,12.0,30.00,WSW,237,5.0,7.0,34,0.00,,,0.00,,2013-01-12 02:02:00,
2013-01-11 18:11:00,38.0,12.0,30.00,WSW,237,5.0,7.0,34,0.00,,,0.00,,2013-01-12 02:11:00,
2013-01-11 18:22:00,37.0,12.0,30.00,WSW,246,5.0,10.0,35,0.00,,,0.00,,2013-01-12 02:22:00,
2013-01-11 18:32:00,37.0,12.0,30.00,WSW,248,3.0,10.0,35,0.00,,,0.00,,2013-01-12 02:32:00,
2013-01-11 18:42:00,37.0,12.0,30.00,WSW,248,3.0,10.0,35,0.00,,,0.00,,2013-01-12 02:42:00,
2013-01-11 18:53:00,37.0,12.0,29.99,WSW,240,4.0,6.0,35,0.00,,,0.00,,2013-01-12 02:53:00,
2013-01-11 19:02:00,37.0,12.0,29.99,WSW,240,2.0,4.0,35,0.00,,,0.00,,2013-01-12 03:02:00,
2013-01-11 19:11:00,37.0,12.0,29.99,WSW,240,2.0,4.0,35,0.00,,,0.00,,2013-01-12 03:11:00,
2013-01-11 19:22:00,37.0,13.0,30.00,West,268,5.0,10.0,37,0.00,,,0.00,,2013-01-12 03:22:00,
2013-01-11 19:32:00,37.0,13.0,30.00,WSW,257,3.0,7.0,36,0.00,,,0.00,,2013-01-12 03:32:00,
2013-01-11 19:42:00,37.0,13.0,30.00,WSW,257,3.0,7.0,36,0.00,,,0.00,,2013-01-12 03:42:00,
2013-01-11 19:53:00,37.0,13.0,30.01,SW,231,4.0,6.0,37,0.00,,,0.00,,2013-01-12 03:53:00,
2013-01-11 20:02:00,36.0,13.0,30.01,SW,226,4.0,7.0,38,0.00,,,0.00,,2013-01-12 04:02:00,
2013-01-11 20:11:00,36.0,13.0,30.01,SW,226,4.0,7.0,38,0.00,,,0.00,,2013-01-12 04:11:00,
2013-01-11 20:22:00,36.0,13.0,30.01,West,278,3.0,9.0,38,0.00,,,0.00,,2013-01-12 04:22:00,
2013-01-11 20:32:00,36.0,12.0,30.01,WSW,256,4.0,7.0,36,0.00,,,0.00,,2013-01-12 04:32:00,
2013-01-11 20:42:00,36.0,12.0,30.01,WSW,256,4.0,7.0,36,0.00,,,0.00,,2013-01-12 04:42:00,
2013-01-11 20:52:00,36.0,10.0,30.01,WSW,252,3.0,6.0,34,0.00,,,0.00,,2013-01-12 04:52:00,
2013-01-11 21:12:00,35.0,10.0,30.01,WSW,253,1.0,4.0,35,0.00,,,0.00,,2013-01-12 05:12:00,
2013-01-11 21:22:00,33.0,10.0,30.02,SSE,155,2.0,4.0,38,0.00,,,0.00,,2013-01-12 05:22:00,
2013-01-11 21:32:00,33.0,10.0,30.02,SSE,154,0.0,2.0,38,0.00,,,0.00,,2013-01-12 05:32:00,
2013-01-11 21:42:00,33.0,10.0,30.02,SSE,154,0.0,2.0,38,0.00,,,0.00,,2013-01-12 05:42:00,
2013-01-11 21:52:00,33.0,11.0,30.02,SSE,155,2.0,4.0,39,0.00,,,0.00,,2013-01-12 05:52:00,
2013-01-11 22:02:00,33.0,11.0,30.02,SSE,155,1.0,3.0,39,0.00,,,0.00,,2013-01-12 06:02:00,
2013-01-11 22:12:00,33.0,11.0,30.02,SSE,155,1.0,3.0,39,0.00,,,0.00,,2013-01-12 06:12:00,
2013-01-11 22:22:00,34.0,10.0,30.02,North,358,4.0,5.0,36,0.00,,,0.00,,2013-01-12 06:22:00,
2013-01-11 22:32:00,35.0,11.0,30.02,NNE,22,5.0,6.0,36,0.00,,,0.00,,2013-01-12 06:32:00,
2013-01-11 22:42:00,35.0,11.0,30.02,NNE,22,5.0,6.0,36,0.00,,,0.00,,2013-01-12 06:42:00,
2013-01-11 22:52:00,35.0,8.0,30.05,NNW,330,5.0,8.0,32,0.00,,,0.00,,2013-01-12 06:52:00,
2013-01-11 23:02:00,36.0,8.0,30.05,North,358,5.0,6.0,30,0.00,,,0.00,,2013-01-12 07:02:00,
2013-01-11 23:11:00,35.0,11.0,30.06,North,352,10.0,14.0,37,0.00,,,0.00,,2013-01-12 07:11:00,
2013-01-11 23:21:00,35.0,11.0,30.06,North,352,10.0,14.0,37,0.00,,,0.00,,2013-01-12 07:21:00,
2013-01-11 23:32:00,34.0,11.0,30.06,North,349,8.0,11.0,37,0.00,,,0.00,,2013-01-12 07:32:00,
2013-01-11 23:42:00,34.0,11.0,30.06,North,349,8.0,11.0,37,0.00,,,0.00,,2013-01-12 07:42:00,
2013-01-11 23:52:00,36.0,9.0,30.06,North,11,6.0,9.0,32,0.00,,,0.00,,2013-01-12 07:52:00,